Corning, AR

12:06 AM CDT on September 27, 2016 (GMT -0500)
Corning

Weather History for K4M9 - February, 2014

Change the Weather History Date:

Thursday, February 13, 2014

  Actual Average (KARG) Record (KARG)
Temperature  
Mean Temperature 30 °F -  
Max Temperature 44 °F 48 °F 64 °F (2005)
Min Temperature 17 °F 32 °F 17 °F (2008)
Degree Days  
Heating Degree Days 34    
Moisture  
Dew Point 24 °F    
Average Humidity 78    
Maximum Humidity 100    
Minimum Humidity 49    
Precipitation  
Precipitation 0.00 in - - ()
Sea Level Pressure  
Sea Level Pressure 29.93 in    
Wind  
Wind Speed 6 mph (SW)    
Max Wind Speed 15 mph    
Max Gust Speed -    
Visibility 8 miles    
Events      
Averages and records for this station are not official NWS values.
T = Trace of Precipitation, MM = Missing Value Source: NWS Daily Summary

Daily Weather History Graph

Daily Weather History Graph

Search for Another Location

Airport or City:

Trip Planner

Search our weather history database for the weather conditions in past years. The results will help you decide how hot, cold, wet, or windy it might be!

Date:

Astronomy

Feb. 13, 2014 Rise Set
Actual Time 6:52 AM CST 5:41 PM CST
Civil Twilight 6:26 AM CST 6:07 PM CST
Nautical Twilight 5:55 AM CST 6:38 PM CST
Astronomical Twilight 5:25 AM CST 7:08 PM CST
Moon 4:49 PM CST (2/13) 5:45 AM CST (2/13)
Length of Visible Light 11h 41m
Length of Day
10h 48m
Waxing Gibbous, 99% of the Moon is Illuminated
Feb 13
Waxing Gibbous
Feb 14
Full
Feb 22
Last Quarter
Mar 1
New
Mar 8
First Quarter

Hourly Weather History & Observations

Time (CST) Temp. Windchill Dew Point Humidity Pressure Visibility Wind Dir Wind Speed Gust Speed Precip Events Conditions
12:15 AM 23.0 °F 18.4 °F 19.4 °F 86% 30.01 in 9.0 mi North 3.5 mph - N/A   Clear
12:35 AM 23.0 °F 18.4 °F 19.4 °F 86% 30.02 in 10.0 mi NNW 3.5 mph - N/A   Clear
12:55 AM 19.4 °F 12.8 °F 17.6 °F 93% 30.03 in 8.0 mi NW 4.6 mph - N/A   Clear
1:15 AM 21.2 °F 12.6 °F 17.6 °F 86% 30.04 in 8.0 mi NW 6.9 mph - N/A   Clear
1:35 AM 23.0 °F 15.8 °F 19.4 °F 86% 30.04 in 10.0 mi NNW 5.8 mph - N/A   Clear
1:55 AM 23.0 °F 15.8 °F 19.4 °F 86% 30.04 in 10.0 mi North 5.8 mph - N/A   Clear
2:15 AM 19.4 °F 12.8 °F 15.8 °F 86% 30.02 in 9.0 mi ENE 4.6 mph - N/A   Clear
2:35 AM 17.6 °F 12.3 °F 15.8 °F 93% 30.02 in 8.0 mi East 3.5 mph - N/A   Clear
2:55 AM 19.4 °F - 17.6 °F 93% 30.02 in 8.0 mi Calm Calm - N/A   Clear
3:15 AM 19.4 °F 14.3 °F 17.6 °F 93% 30.02 in 7.0 mi East 3.5 mph - N/A   Clear
3:35 AM 19.4 °F 14.3 °F 17.6 °F 93% 30.01 in 7.0 mi East 3.5 mph - N/A   Clear
3:55 AM 17.6 °F 10.7 °F 17.6 °F 100% 30.00 in 5.0 mi East 4.6 mph - N/A   Clear
4:15 AM 19.4 °F - 17.6 °F 93% 30.00 in 5.0 mi Calm Calm - N/A   Clear
4:35 AM 19.4 °F 11.5 °F 17.6 °F 93% 29.99 in 5.0 mi ESE 5.8 mph - N/A   Clear
4:55 AM 17.6 °F 9.3 °F 15.8 °F 93% 29.98 in 5.0 mi SE 5.8 mph - N/A   Clear
5:15 AM 17.6 °F 12.3 °F 17.6 °F 100% 29.98 in 5.0 mi ESE 3.5 mph - N/A   Clear
5:35 AM 17.6 °F 6.4 °F 15.8 °F 93% 30.01 in 5.0 mi WNW 9.2 mph - N/A   Clear
5:55 AM 17.6 °F 8.2 °F 17.6 °F 100% 30.02 in 6.0 mi WNW 6.9 mph - N/A   Clear
6:15 AM 17.6 °F - 15.8 °F 93% 30.01 in 7.0 mi Calm Calm - N/A   Clear
6:35 AM 17.6 °F - 15.8 °F 93% 30.00 in 7.0 mi Calm Calm - N/A   Clear
6:55 AM 17.6 °F 12.3 °F 15.8 °F 93% 30.00 in 6.0 mi SW 3.5 mph - N/A   Clear
7:15 AM 17.6 °F 12.3 °F 15.8 °F 93% 30.00 in 5.0 mi SW 3.5 mph - N/A   Clear
7:35 AM 17.6 °F 9.3 °F 17.6 °F 100% 30.01 in 5.0 mi West 5.8 mph - N/A   Clear
7:55 AM 21.2 °F - 19.4 °F 93% 30.00 in 5.0 mi Calm Calm - N/A   Clear
8:15 AM 23.0 °F 18.4 °F 19.4 °F 86% 30.00 in 7.0 mi West 3.5 mph - N/A   Clear
8:35 AM 24.8 °F - 21.2 °F 86% 30.00 in 6.0 mi Calm Calm - N/A   Clear
8:55 AM 26.6 °F - 21.2 °F 80% 30.00 in 7.0 mi Calm Calm - N/A   Clear
9:15 AM 26.6 °F - 23.0 °F 86% 30.00 in 7.0 mi Calm Calm - N/A   Clear
9:35 AM 28.4 °F 24.6 °F 23.0 °F 80% 29.99 in 7.0 mi SSW 3.5 mph - N/A   Clear
9:55 AM 32.0 °F 28.7 °F 23.0 °F 69% 29.98 in 8.0 mi South 3.5 mph - N/A   Clear
10:15 AM 32.0 °F 26.4 °F 24.8 °F 75% 30.00 in 8.0 mi West 5.8 mph - N/A   Clear
10:35 AM 33.8 °F 27.7 °F 23.0 °F 65% 30.00 in 10.0 mi West 6.9 mph - N/A   Clear
10:55 AM 35.6 °F 28.6 °F 23.0 °F 60% 29.99 in 10.0 mi SW 9.2 mph - N/A   Clear
11:15 AM 37.4 °F 31.4 °F 24.8 °F 60% 29.98 in 10.0 mi SW 8.1 mph - N/A   Clear
11:35 AM 37.4 °F 32.1 °F 21.2 °F 52% 29.97 in 10.0 mi SW 6.9 mph - N/A   Clear
11:55 AM 37.4 °F 31.4 °F 23.0 °F 56% 29.97 in 10.0 mi SW 8.1 mph - N/A   Clear
12:15 PM 39.2 °F 33.6 °F 23.0 °F 52% 29.95 in 10.0 mi SW 8.1 mph - N/A   Clear
12:35 PM 41.0 °F 35.2 °F 23.0 °F 49% 29.93 in 10.0 mi SSW 9.2 mph - N/A   Clear
12:55 PM 42.8 °F 37.5 °F 24.8 °F 49% 29.91 in 10.0 mi SSW 9.2 mph - N/A   Clear
1:35 PM 42.8 °F 37.0 °F 26.6 °F 53% 29.88 in 10.0 mi SSW 10.4 mph - N/A   Clear
1:55 PM 42.8 °F 36.6 °F 28.4 °F 57% 29.87 in 10.0 mi SSW 11.5 mph - N/A   Clear
2:15 PM 42.8 °F 37.0 °F 26.6 °F 53% 29.87 in 10.0 mi SSW 10.4 mph - N/A   Clear
2:35 PM 42.8 °F 38.6 °F 30.2 °F 61% 29.86 in 10.0 mi South 6.9 mph - N/A   Clear
2:55 PM 42.8 °F 38.0 °F 32.0 °F 66% 29.85 in 10.0 mi South 8.1 mph - N/A   Clear
3:15 PM 44.6 °F 38.8 °F 30.2 °F 57% 29.84 in 10.0 mi SSW 11.5 mph - N/A   Clear
3:35 PM 44.6 °F 38.4 °F 30.2 °F 57% 29.84 in 10.0 mi SSW 12.7 mph - N/A   Clear
3:55 PM 42.8 °F 36.2 °F 32.0 °F 66% 29.83 in 10.0 mi SSW 12.7 mph - N/A   Clear
4:15 PM 41.0 °F 33.5 °F 30.2 °F 65% 29.83 in 10.0 mi SSW 13.8 mph - N/A   Clear
4:35 PM 41.0 °F 33.1 °F 30.2 °F 65% 29.82 in 10.0 mi SSW 15.0 mph - N/A   Clear
4:55 PM 41.0 °F 33.5 °F 32.0 °F 70% 29.82 in 10.0 mi SSW 13.8 mph - N/A   Clear
5:15 PM 39.2 °F 31.6 °F 32.0 °F 75% 29.81 in 10.0 mi SSW 12.7 mph - N/A   Clear
5:35 PM 39.2 °F 32.0 °F 30.2 °F 70% 29.81 in 10.0 mi SSW 11.5 mph - N/A   Clear
7:35 PM 39.2 °F 32.0 °F 32.0 °F 75% 29.83 in 10.0 mi SSW 11.5 mph - N/A   Clear
8:15 PM 37.4 °F 30.8 °F 32.0 °F 81% 29.84 in 10.0 mi SW 9.2 mph - N/A   Clear
8:35 PM 37.4 °F 29.3 °F 32.0 °F 81% 29.83 in 10.0 mi SW 12.7 mph - N/A   Clear
8:55 PM 37.4 °F 29.8 °F 32.0 °F 81% 29.83 in 10.0 mi SW 11.5 mph - N/A   Clear
9:15 PM 35.6 °F 28.0 °F 32.0 °F 87% 29.84 in 10.0 mi SW 10.4 mph - N/A   Clear
9:35 PM 35.6 °F 27.5 °F 32.0 °F 87% 29.84 in 10.0 mi SW 11.5 mph - N/A   Clear
9:55 PM 37.4 °F 29.3 °F 30.2 °F 75% 29.84 in 10.0 mi SW 12.7 mph - N/A   Clear
10:15 PM 37.4 °F 29.8 °F 30.2 °F 75% 29.84 in 10.0 mi SW 11.5 mph - N/A   Clear
10:35 PM 35.6 °F 28.0 °F 30.2 °F 81% 29.84 in 10.0 mi SW 10.4 mph - N/A   Clear
10:55 PM 35.6 °F 28.0 °F 28.4 °F 75% 29.83 in 10.0 mi SW 10.4 mph - N/A   Clear
11:15 PM 35.6 °F 28.6 °F 28.4 °F 75% 29.83 in 10.0 mi SW 9.2 mph - N/A   Clear
11:35 PM 35.6 °F 29.2 °F 28.4 °F 75% 29.84 in 10.0 mi SW 8.1 mph - N/A   Clear
11:55 PM 35.6 °F 31.7 °F 28.4 °F 75% 29.83 in 10.0 mi WSW 4.6 mph - N/A   Clear